Location: *
(30.4476°N, 114.3798°E)
Time: 03:09:06
(UTC+00:00)

FENGYUN 3A - Pass Details

Date: 09 April 2020
Orbit: 823 x 837 km, 98.4° (Epoch: 31 May)

Event Time Altitude Azimuth Distance (km) Brightness Sun altitude
Rises 21:22:49 0° 11° (NNE) 3,368 7.2 -8.9°
Reaches altitude 10° 21:25:11 10° 11° (NNE) 2,430 6.5 -8.4°
Maximum altitude 21:30:34 87° 286° (WNW) 829 3.7 -7.2°
Drops below altitude 10° 21:35:55 10° 195° (SSW) 2,412 5.8 -6.1°
Sets 21:38:15 0° 195° (SSW) 3,341 6.5 -5.6°
